Location: Malanoce
(44.2500°N, 7.4667°E)
Time: 05:27:22
(UTC+00:00)

USA 281 - Pass Details

Date: 17 November 2025
Orbit: 1079 x 1080 km, 106.0° (Epoch: 08 December)

Event Time Altitude Azimuth Distance (km) Brightness Sun altitude
Exits shadow 17:15:09 17° 65° (ENE) 2,451 4.5 -13.2°
Maximum altitude 17:17:05 19° 43° (NE) 2,320 4.5 -13.6°
Drops below altitude 10° 17:21:25 10° 2° (N) 2,929 5.4 -14.3°
Sets 17:24:42 0° 345° (NNW) 3,888 6.2 -14.9°
